Weather History for George, South Africa

Change the Weather History Date:

Wednesday, September 18, 2013

  Actual Average Record
Temperature  
Mean Temperature 59 °F -  
Max Temperature 64 °F 66 °F 77 °F (2007)
Min Temperature 54 °F 49 °F 42 °F (1999)
Degree Days  
Heating Degree Days 6    
Growing Degree Days 9 (Base 50)    
Moisture  
Dew Point 52 °F    
Average Humidity 80    
Maximum Humidity 94    
Minimum Humidity 57    
Precipitation  
Precipitation 0.00 in - - ()
Sea Level Pressure  
Sea Level Pressure 30.00 in    
Wind  
Wind Speed 5 mph ()    
Max Wind Speed 10 mph    
Max Gust Speed -    
Visibility 7.4 miles    
Events      
Averages and records for this station are not official NWS values.
T = Trace of Precipitation, MM = Missing Value Source: Averaged Metar Reports

Daily Weather History Graph

Daily Weather History Graph

Search for Another Location

Airport:

Trip Planner

Search our weather history database for the weather conditions in past years. The results will help you decide how hot, cold, wet, or windy it might be!

Date:

Astronomy

Sep. 18, 2013 Rise Set
Actual Time 6:25 AM SAST 6:24 PM SAST
Civil Twilight 6:00 AM SAST 6:49 PM SAST
Nautical Twilight 5:31 AM SAST 7:18 PM SAST
Astronomical Twilight 5:02 AM SAST 7:47 PM SAST
Moon 5:32 PM SAST (9/18) 5:24 AM SAST (9/18)
Length of Visible Light 12h 48m
Length of Day
11h 58m
Waxing Gibbous, 99% of the Moon is Illuminated
Sep 18
Waxing Gibbous
Sep 19
Full
Sep 27
Last Quarter
Oct 5
New
Oct 12
First Quarter

Hourly Weather History & Observations

Time (SAST) Temp. Dew Point Humidity Pressure Visibility Wind Dir Wind Speed Gust Speed Precip Events Conditions
12:00 AM 59.0 °F 55.4 °F 88% 30.09 in 6.2 mi SSW 9.2 mph - N/A   Mostly Cloudy
1:00 AM 57.2 °F 53.6 °F 88% 30.06 in 6.2 mi Variable 2.3 mph - N/A   Mostly Cloudy
2:00 AM 56 °F 52 °F 83% 30.07 in 6 mi 2.3 mph - -  
2:00 AM 55.4 °F 51.8 °F 88% 30.06 in - SE 2.3 mph - N/A   Clear
3:00 AM 55.4 °F 51.8 °F 88% 30.04 in 6.2 mi SW 8.1 mph - N/A   Overcast
4:00 AM 55.4 °F 51.8 °F 88% 30.04 in 6.2 mi West 3.5 mph - N/A   Mostly Cloudy
5:00 AM 56 °F 52 °F 83% 30.04 in 12 mi West 3.5 mph - -   Mostly Cloudy
5:00 AM 55.4 °F 51.8 °F 88% 30.04 in 6.2 mi West 3.5 mph - N/A   Mostly Cloudy
6:00 AM 55.4 °F 51.8 °F 88% 30.04 in 6.2 mi West 3.5 mph - N/A   Mostly Cloudy
7:00 AM 55.4 °F 51.8 °F 88% 30.04 in 6.2 mi WNW 3.5 mph - N/A   Mostly Cloudy
8:00 AM 57 °F 51 °F 76% 30.06 in 12 mi West 3.5 mph - -   Mostly Cloudy
8:00 AM 57.2 °F 51.8 °F 82% 30.04 in 6.2 mi Variable 1.2 mph - N/A   Scattered Clouds
9:00 AM 57.2 °F 50.0 °F 77% 30.04 in 6.2 mi South 5.8 mph - N/A   Mostly Cloudy
10:00 AM 59.0 °F 51.8 °F 77% 30.06 in 6.2 mi SSW 4.6 mph - N/A   Mostly Cloudy
11:00 AM 64 °F 52 °F 57% 30.05 in 12 mi WNW 3.5 mph - -   Mostly Cloudy
11:00 AM 64.4 °F 51.8 °F 64% 30.04 in 6.2 mi Variable 3.5 mph - N/A   Scattered Clouds
12:00 PM 62.6 °F 51.8 °F 68% 30.01 in 6.2 mi South 10.4 mph - N/A   Scattered Clouds
1:00 PM 60.8 °F 51.8 °F 72% 30.01 in 6.2 mi SSE 10.4 mph - N/A   Scattered Clouds
2:00 PM 60 °F 52 °F 66% 29.98 in 12 mi SSE 8.1 mph - -   Mostly Cloudy
2:00 PM 60.8 °F 51.8 °F 72% 29.98 in 6.2 mi SSE 8.1 mph - N/A   Mostly Cloudy
3:00 PM 59.0 °F 51.8 °F 77% 29.95 in 6.2 mi SSE 6.9 mph - N/A   Mostly Cloudy
4:00 PM 59.0 °F 51.8 °F 77% 29.92 in 6.2 mi South 6.9 mph - N/A   Mostly Cloudy
5:00 PM 58 °F 51 °F 70% 29.95 in 12 mi South 8.1 mph - -   Mostly Cloudy
5:00 PM 59.0 °F 50.0 °F 72% 29.95 in 6.2 mi South 8.1 mph - N/A   Mostly Cloudy
6:00 PM 57.2 °F 51.8 °F 82% 29.95 in 6.2 mi SSE 4.6 mph - N/A   Light Drizzle
7:00 PM 55.4 °F 53.6 °F 94% 29.95 in 6.2 mi ENE 3.5 mph - N/A   Mostly Cloudy
8:00 PM 56 °F 53 °F 86% 29.95 in 12 mi NNE 3.5 mph - -   Partly Cloudy
8:00 PM 55.4 °F 51.8 °F 88% 29.95 in 6.2 mi NNE 3.5 mph - N/A   Mostly Cloudy
9:00 PM 55.4 °F 51.8 °F 88% 29.92 in 6.2 mi North 5.8 mph - N/A   Overcast
10:00 PM 55.4 °F 51.8 °F 88% 29.92 in 6.2 mi NNE 4.6 mph - N/A   Overcast
11:00 PM 55.4 °F 51.8 °F 88% 29.89 in 6.2 mi NNE 3.5 mph - N/A   Overcast